Wind_Speed
26 27 28 27 26 26 26 25 24 23 22 21 19 20 19 19 19 8 10 17 14 13 19 23 19 18 16 6 2 1 3 2 1 3 1 10 4 5 6 12 6 6 8 17 30
26 28 28 28 28 28 27 26 26 25 23 22 21 19 17 16 15 14 33 19 20 26 27 29 20 21 7 7 4 4 3 2 3 2 5 12 9 10 4 12 7 7 14 30 30
27 29 29 29 29 30 29 27 27 27 25 23 21 17 13 11 6 8 3 7 22 29 24 25 26 17 9 5 7 6 5 3 2 5 3 12 10 8 7 10 11 15 22 27 29
27 28 29 29 31 32 31 33 32 30 27 23 19 15 7 2 6 2 3 7 29 29 29 26 20 14 9 8 11 5 11 8 2 0 3 11 11 8 12 3 11 17 25 28 25
29 30 32 33 35 36 35 40 36 29 25 22 15 10 2 4 12 16 12 8 31 28 33 19 24 13 14 10 8 14 9 5 11 11 9 7 15 10 16 10 12 20 24 24 22
32 34 36 38 38 39 41 40 31 31 26 19 11 4 3 9 8 10 7 25 33 32 30 23 16 12 10 7 15 4 12 13 10 13 11 13 10 9 11 14 16 22 26 23 24
34 36 38 40 42 43 44 33 34 31 23 17 11 9 5 16 4 10 15 21 33 34 27 26 15 16 8 5 10 10 13 13 14 10 8 11 9 18 10 19 20 22 23 22 22
36 38 40 42 45 46 40 33 19 12 5 7 15 11 8 5 21 12 15 9 22 23 23 17 8 16 4 1 2 3 3 5 1 7 5 14 15 15 17 20 21 23 22 21 23
38 40 44 47 48 44 30 19 12 15 11 20 12 5 7 2 8 20 17 10 24 21 9 13 9 7 5 9 7 5 9 8 6 9 5 12 13 5 20 21 21 22 22 21 21
39 41 44 48 48 32 29 1 6 9 10 2 5 4 7 4 6 12 20 21 9 17 7 7 7 12 11 12 12 10 9 9 12 1 7 10 17 2 19 22 21 22 22 22 23
39 42 45 46 45 26 22 2 2 3 3 8 2 5 3 4 9 7 26 20 10 14 13 15 12 22 22 18 14 7 15 11 4 3 6 12 13 9 15 18 20 20 21 22 24
40 43 45 46 37 15 13 5 7 7 12 15 22 18 24 5 3 12 27 15 14 17 16 8 24 21 13 15 17 16 17 16 8 10 4 6 10 9 15 21 23 25 24 24 22
41 43 44 47 21 16 7 8 12 8 6 9 8 8 8 13 7 16 26 17 23 22 27 26 6 20 19 15 18 20 22 19 14 3 4 7 13 6 11 16 17 21 21 20 23
42 42 42 43 6 22 3 15 24 2 5 6 5 5 7 9 10 15 26 17 12 26 23 22 20 22 23 26 22 23 17 16 15 8 11 5 12 6 11 16 18 19 21 22 24
43 43 39 23 10 7 16 27 18 4 6 4 4 7 9 14 1 13 28 12 21 20 16 18 23 18 25 25 20 16 11 16 17 14 11 13 8 12 4 12 19 21 23 24 24
44 42 33 11 11 20 28 22 3 4 9 1 4 3 6 12 2 4 15 12 6 11 20 19 7 24 16 20 23 13 7 9 6 9 15 20 14 17 15 15 14 18 22 23 24
45 41 20 7 8 32 24 4 4 7 7 5 4 5 5 2 7 7 18 26 17 16 17 20 14 12 18 17 19 20 16 7 9 11 15 12 14 21 9 18 20 18 23 25 25
42 36 10 10 23 30 9 3 9 3 5 9 8 13 3 4 2 2 16 24 21 19 15 19 16 20 19 21 14 26 22 9 14 14 12 8 14 13 15 19 19 18 18 20 22
40 29 10 18 29 14 3 5 4 9 9 13 13 4 1 3 5 4 7 20 21 15 13 19 19 9 17 12 22 15 23 22 8 1 5 13 14 10 8 18 17 18 15 18 22
26 10 10 34 15 4 2 3 4 12 15 9 5 7 5 8 3 3 2 7 6 1 5 6 7 13 25 18 23 14 18 11 13 15 13 8 9 13 18 19 17 18 18 19 20
7 4 18 31 7 3 3 5 7 10 14 8 8 8 7 6 6 4 7 9 9 7 5 2 5 4 16 21 22 11 19 12 13 9 9 7 10 8 15 17 20 22 21 20 19
5 3 19 23 6 3 5 12 9 10 10 5 7 4 5 5 4 4 3 7 14 9 1 3 4 11 17 14 22 23 19 22 11 14 12 7 7 1 10 10 13 16 17 13 15
4 3 9 10 5 7 9 7 6 13 11 7 6 9 6 5 3 5 5 7 12 12 6 4 3 12 12 10 10 21 23 22 21 12 17 11 6 11 4 3 7 11 13 12 12
3 4 3 4 1 6 10 6 9 10 5 6 8 7 7 2 2 2 5 5 10 9 9 4 1 10 14 11 3 6 11 24 24 17 18 20 17 9 6 6 7 9 11 10 10
3 2 1 4 4 9 10 6 12 9 8 8 2 9 9 4 3 4 6 6 4 12 7 4 2 5 5 7 6 9 10 10 18 24 22 21 27 21 17 18 12 9 9 10 11
2 2 1 6 8 8 5 3 9 10 8 8 5 10 9 4 6 6 9 4 3 6 7 7 1 4 8 9 9 11 13 14 15 17 16 22 26 11 7 14 18 20 17 15 14
2 3 2 4 5 4 3 6 11 14 7 5 8 15 11 11 11 13 12 12 12 9 4 5 3 2 5 7 13 15 21 17 14 13 15 21 18 14 16 16 15 18 18 16 15
Wind_Direction
359 358 355 352 348 345 341 338 335 332 329 327 325 326 325 317 310 286 237 240 218 182 157 149 159 159 168 171 160 285 281 277 215 193 135 162 149 127 103 140 166 179 152 146 157
356 356 353 350 346 344 340 337 332 329 327 324 322 323 327 324 316 261 267 254 223 177 159 163 162 160 174 184 181 218 257 219 202 215 304 176 162 145 146 159 174 112 124 142 157
355 353 351 348 344 339 335 330 329 324 322 318 317 320 328 333 290 251 111 190 198 182 171 163 152 157 169 165 195 183 233 231 194 303 21 162 153 159 157 187 187 165 149 154 163
350 350 349 346 342 340 338 334 328 319 314 310 310 315 327 314 259 187 343 235 174 165 155 154 162 166 184 192 203 226 244 248 287 143 121 171 161 184 189 170 187 164 163 161 171
352 352 351 348 344 341 337 334 324 314 303 299 298 306 318 223 248 267 291 141 163 167 163 168 172 173 185 195 187 235 261 246 251 257 269 190 195 189 207 172 146 155 167 174 175
353 353 351 348 344 340 337 331 324 311 298 284 273 247 203 245 249 243 218 158 169 174 173 171 184 180 176 191 199 203 244 258 272 255 242 216 223 199 208 171 144 159 174 180 183
352 351 350 348 344 342 337 333 320 303 287 266 228 187 216 245 227 201 176 175 176 178 177 185 173 187 168 182 226 260 274 273 248 226 233 216 230 225 177 163 155 167 177 184 190
354 352 350 347 347 341 335 339 339 326 274 204 177 171 245 261 219 153 171 178 185 179 192 185 196 199 215 258 178 237 225 268 331 198 211 187 266 235 174 168 168 171 178 190 195
356 354 352 349 348 340 337 338 25 50 107 127 135 197 252 237 209 213 190 170 172 179 170 184 188 205 180 225 245 219 241 235 277 215 177 210 280 319 180 179 176 178 181 190 199
354 353 351 349 349 345 341 61 113 83 103 84 99 244 237 220 172 163 176 155 156 169 194 188 186 213 213 203 215 214 216 238 251 190 217 230 252 10 186 191 188 184 186 190 200
352 351 350 348 348 357 354 20 309 184 283 235 204 277 300 307 142 157 166 152 127 165 181 194 202 211 209 215 226 231 231 236 251 244 250 240 261 228 194 202 198 191 194 194 204
351 350 350 346 345 354 19 59 64 305 299 253 245 255 262 312 209 154 165 169 186 191 183 173 222 212 208 202 217 224 233 237 253 268 272 275 256 215 195 206 204 195 197 201 201
352 350 349 344 346 352 24 86 351 340 256 283 222 230 222 190 233 182 178 186 190 194 194 205 212 200 198 201 213 225 226 230 241 304 228 267 262 222 217 223 217 212 210 206 202
351 349 349 342 12 338 70 331 331 309 276 257 221 245 169 157 233 205 191 176 190 204 197 220 205 192 203 216 207 226 221 234 236 242 249 219 263 225 222 216 218 214 210 210 206
348 347 346 345 319 338 310 318 324 160 287 103 141 157 155 187 56 196 190 203 197 183 178 201 200 190 210 210 201 226 206 211 230 236 252 224 254 245 200 220 219 217 214 211 210
345 345 345 345 333 331 326 322 160 221 242 65 100 163 167 220 246 121 186 211 183 188 213 207 207 196 202 208 202 199 172 177 194 231 239 234 229 252 220 220 225 222 219 213 212
342 343 348 335 330 340 333 291 197 233 347 18 2 350 328 246 222 182 190 191 187 184 195 203 195 195 197 188 199 201 183 182 209 217 237 224 223 241 234 220 229 213 217 213 209
342 344 2 337 335 335 325 233 226 10 346 350 334 307 229 343 198 243 192 195 205 205 184 195 209 196 188 201 187 199 199 205 214 235 237 184 236 240 222 224 227 232 223 213 209
343 347 7 351 337 329 302 240 357 21 345 329 319 296 290 10 332 333 195 209 203 206 209 202 216 190 182 185 185 185 210 210 242 142 252 227 243 259 235 217 215 222 215 212 215
338 339 340 345 346 334 274 297 332 15 338 330 329 359 342 355 354 12 80 3 246 224 300 186 207 199 197 187 199 192 172 179 213 225 234 213 240 234 198 211 214 226 220 216 220
356 353 357 352 354 25 35 324 311 344 351 323 330 315 327 342 335 22 26 53 357 326 343 235 234 146 177 202 183 184 191 200 198 222 223 245 242 201 220 215 212 216 216 215 217
356 359 354 360 39 4 352 320 299 331 344 316 308 310 306 329 329 37 85 33 354 335 357 28 241 214 206 195 213 201 197 198 202 197 232 267 241 174 232 229 233 237 233 238 227
359 294 352 12 41 354 338 307 316 346 343 350 329 2 347 334 310 46 40 20 8 20 23 352 227 199 227 212 205 218 212 206 216 229 211 211 194 236 216 181 212 228 236 238 231
352 346 348 39 70 347 338 322 331 341 8 338 331 355 343 329 15 28 14 8 344 10 351 309 24 255 222 223 13 219 217 212 219 227 228 228 242 223 244 241 271 268 272 257 239
4 31 10 317 335 324 322 301 315 351 344 337 36 17 0 295 305 5 12 341 14 1 3 15 30 338 315 308 291 262 253 239 232 235 233 243 242 239 249 276 274 281 283 287 273
325 319 300 287 293 301 321 297 310 336 324 318 5 353 349 307 22 332 348 1 5 350 6 350 312 335 307 305 290 277 255 250 246 245 255 259 261 257 280 259 268 264 270 276 260
299 261 215 269 291 288 307 322 309 327 299 311 325 320 313 291 324 311 290 274 274 296 314 317 294 265 263 324 318 269 243 244 247 240 243 244 250 253 253 243 243 255 254 251 249
Height
813 809 805 801 797 794 791 787 783 781 778 776 773 771 768 765 762 762 758 750 753 758 763 767 773 775 778 778 778 777 783 786 779 777 770 763 771 768 768 776 778 782 784 788 800
813 809 805 800 796 792 789 785 781 778 776 773 771 769 766 763 759 753 738 743 747 752 759 762 766 771 776 777 778 782 786 774 762 759 760 760 764 770 776 779 781 784 786 793 801
813 808 804 799 794 789 785 782 779 775 772 770 768 767 765 763 760 736 733 734 741 747 755 761 766 770 775 777 777 777 778 765 758 754 752 758 763 762 773 783 775 785 787 793 799
812 808 803 798 793 787 782 778 774 770 768 766 765 764 764 764 758 731 732 731 737 747 754 759 764 769 773 780 771 780 766 762 757 753 756 761 756 766 767 769 766 778 785 788 794
811 806 801 796 790 784 778 773 767 764 762 761 762 763 764 762 742 730 731 733 742 746 748 752 760 762 771 770 771 774 764 758 755 754 754 754 756 757 760 760 764 774 786 790 793
809 804 799 793 787 780 774 767 760 756 754 755 758 761 763 758 729 728 730 733 736 743 746 749 753 756 762 765 766 758 760 759 754 752 752 756 753 756 752 756 766 773 782 788 791
807 801 796 790 783 775 767 760 753 746 745 747 753 758 758 732 726 725 729 731 732 737 741 746 750 753 755 764 754 756 763 752 749 749 751 746 761 757 749 755 765 771 779 785 790
805 799 793 786 778 769 762 755 746 740 738 741 748 756 742 721 724 725 727 731 737 742 745 749 750 750 755 751 755 759 759 765 742 742 741 745 755 742 744 755 763 768 775 782 786
804 797 790 782 774 763 756 751 748 742 739 743 750 752 732 719 719 719 725 728 735 743 746 749 753 753 756 763 769 765 769 766 756 736 741 744 748 739 739 749 758 764 768 776 783
802 795 787 779 771 761 753 749 748 748 748 749 749 751 722 712 710 713 722 727 734 741 749 750 752 757 757 762 774 773 774 764 760 742 741 744 745 742 740 745 751 757 762 768 774
802 794 786 777 769 762 752 751 751 749 747 732 729 721 713 709 709 712 717 725 730 738 748 746 755 750 752 756 755 759 760 758 750 740 745 742 739 740 741 744 749 755 759 761 764
801 793 785 775 768 763 758 759 770 775 751 727 723 722 714 715 710 710 714 720 727 737 738 752 743 738 743 753 756 758 761 757 752 742 746 740 741 736 738 738 738 744 748 751 757
801 793 784 774 766 764 765 768 771 769 758 716 711 708 706 712 712 703 705 706 716 728 731 730 727 731 744 751 757 754 755 754 755 745 741 745 745 742 735 733 735 738 740 746 750
799 793 785 774 771 768 768 769 766 766 747 709 704 697 699 699 705 695 698 699 710 717 724 726 720 730 738 741 745 753 743 750 756 761 766 741 761 744 732 736 734 735 737 738 741
798 792 785 778 777 774 772 765 763 766 736 695 697 693 693 693 689 690 689 693 700 703 715 715 719 730 737 728 736 743 739 748 750 755 756 751 760 732 736 737 730 725 725 729 732
795 790 783 779 776 773 765 760 760 750 734 696 692 695 699 693 688 688 688 687 689 703 701 702 705 713 716 720 725 728 743 745 751 753 770 749 756 731 729 723 717 715 717 721 725
793 786 781 779 776 769 762 759 750 742 702 710 707 701 701 695 689 688 689 690 691 710 712 708 711 704 704 723 723 730 740 764 774 768 754 729 750 722 706 703 698 701 704 708 713
791 784 780 778 775 768 763 752 746 725 726 716 711 704 699 699 692 690 688 691 679 681 693 711 727 701 694 703 719 725 728 743 766 749 743 736 732 713 692 689 688 688 688 696 706
790 782 781 779 773 768 762 753 741 743 747 738 716 710 704 703 704 696 689 683 679 677 690 697 700 683 688 690 700 722 727 711 735 749 748 719 706 697 690 686 685 684 686 690 691
792 787 784 778 772 769 761 762 756 755 750 738 734 724 720 713 705 700 697 712 694 692 694 682 700 679 682 685 689 701 704 740 731 756 755 723 724 703 692 688 684 684 682 680 680
794 787 785 777 773 769 770 772 766 760 755 744 738 735 726 724 714 709 716 716 711 703 695 691 688 694 682 684 690 705 708 704 708 716 725 730 705 680 680 676 672 668 667 670 674
800 788 788 780 779 785 779 781 771 760 757 752 742 736 732 727 718 715 718 719 715 709 706 705 692 689 686 669 667 679 689 696 712 725 712 706 700 664 666 663 667 663 662 662 665
806 804 791 787 792 792 790 782 772 764 762 758 751 745 738 732 727 723 722 721 718 711 716 708 702 697 693 682 678 680 678 684 684 687 710 718 697 658 664 667 663 665 662 663 665
808 798 795 797 802 799 796 783 776 769 765 769 762 750 744 736 732 731 729 725 723 718 716 711 708 693 682 681 698 699 684 677 681 692 694 687 684 671 666 670 664 662 658 657 661
813 809 808 799 794 796 793 792 781 775 771 766 773 773 768 749 737 735 736 732 725 727 719 716 713 712 707 706 704 703 698 694 689 678 681 675 673 673 671 664 660 657 658 659 658
812 810 811 807 800 795 789 785 785 779 781 770 777 775 775 764 754 750 749 740 737 731 729 725 718 718 712 703 698 699 690 690 688 686 685 678 672 658 662 661 660 655 654 654 655
813 811 811 805 802 799 786 784 782 783 776 774 781 775 767 769 759 754 750 747 744 745 739 734 723 720 716 707 701 695 676 678 678 676 676 681 667 659 660 660 661 658 653 650 647